Time,TemperatureF,DewpointF,PressureIn,WindDirection,WindDirectionDegrees,WindSpeedMPH,WindSpeedGustMPH,Humidity,HourlyPrecipIn,Conditions,Clouds,dailyrainin,SolarRadiationWatts/m^2,SoftwareType,DateUTC
2013-05-12 00:01:00,72.0,65.5,29.86,SSW,205,1.4,6.9,80,0.00,CLR,OVC,0.00,0.0,WeatherDisplay:10.37,2013-05-12 04:01:00,
2013-05-12 00:06:00,72.0,65.8,29.86,SSW,201,3.8,9.2,81,0.00,CLR,OVC,0.00,0.0,WeatherDisplay:10.37,2013-05-12 04:06:00,
2013-05-12 00:11:00,72.0,65.8,29.86,SSW,199,4.3,6.9,81,0.00,CLR,OVC,0.00,0.0,WeatherDisplay:10.37,2013-05-12 04:11:00,
2013-05-12 00:16:00,72.1,65.9,29.86,SSE,165,2.5,5.0,81,0.00,CLR,OVC,0.00,0.0,WeatherDisplay:10.37,2013-05-12 04:16:00,
2013-05-12 00:21:00,72.1,65.9,29.86,SSW,192,3.9,6.9,81,0.00,CLR,OVC,0.00,0.0,WeatherDisplay:10.37,2013-05-12 04:21:00,
2013-05-12 00:26:00,72.2,66.0,29.86,WSW,257,2.0,7.0,81,0.00,CLR,OVC,0.00,0.0,WeatherDisplay:10.37,2013-05-12 04:26:00,
2013-05-12 00:31:00,72.2,66.0,29.86,South,178,2.4,8.1,81,0.00,CLR,OVC,0.00,0.0,WeatherDisplay:10.37,2013-05-12 04:31:00,
2013-05-12 00:36:00,72.3,66.1,29.86,SW,220,3.6,8.1,81,0.00,CLR,OVC,0.00,0.0,WeatherDisplay:10.37,2013-05-12 04:36:00,
2013-05-12 00:41:00,72.3,66.1,29.85,SW,225,0.9,4.6,81,0.00,CLR,OVC,0.00,0.0,WeatherDisplay:10.37,2013-05-12 04:41:00,
2013-05-12 00:46:00,72.3,66.1,29.85,SSE,163,2.4,4.6,81,0.00,CLR,OVC,0.00,0.0,WeatherDisplay:10.37,2013-05-12 04:46:00,
2013-05-12 00:51:00,72.3,66.1,29.85,South,180,2.9,6.9,81,0.00,CLR,OVC,0.00,0.0,WeatherDisplay:10.37,2013-05-12 04:51:00,
2013-05-12 00:56:00,72.3,66.1,29.84,SW,233,2.4,4.6,81,0.00,CLR,OVC,0.00,0.0,WeatherDisplay:10.37,2013-05-12 04:56:00,
2013-05-12 01:01:00,72.4,66.2,29.84,SSW,193,4.0,9.2,81,0.00,CLR,OVC,0.00,0.0,WeatherDisplay:10.37,2013-05-12 05:01:00,
2013-05-12 01:06:00,72.4,66.2,29.84,SSW,213,4.2,8.1,81,0.00,CLR,OVC,0.00,0.0,WeatherDisplay:10.37,2013-05-12 05:06:00,
2013-05-12 01:11:00,72.5,66.0,29.84,SSW,210,2.2,7.0,80,0.00,CLR,OVC,0.00,0.0,WeatherDisplay:10.37,2013-05-12 05:11:00,
2013-05-12 01:16:00,72.5,66.3,29.84,SW,226,1.8,3.5,81,0.00,CLR,OVC,0.00,0.0,WeatherDisplay:10.37,2013-05-12 05:16:00,
2013-05-12 01:21:00,72.5,66.3,29.84,South,181,1.7,6.9,81,0.00,CLR,OVC,0.00,0.0,WeatherDisplay:10.37,2013-05-12 05:21:00,
2013-05-12 01:26:00,72.5,66.3,29.84,South,178,1.6,3.5,81,0.00,CLR,OVC,0.00,0.0,WeatherDisplay:10.37,2013-05-12 05:26:00,
2013-05-12 01:31:00,72.5,66.3,29.84,South,183,4.4,9.2,81,0.00,CLR,OVC,0.00,0.0,WeatherDisplay:10.37,2013-05-12 05:31:00,
2013-05-12 01:36:00,72.5,66.3,29.84,SSE,163,4.1,9.2,81,0.00,CLR,OVC,0.00,0.0,WeatherDisplay:10.37,2013-05-12 05:36:00,
2013-05-12 01:41:00,72.5,66.3,29.84,SW,226,2.8,6.9,81,0.00,CLR,OVC,0.00,0.0,WeatherDisplay:10.37,2013-05-12 05:41:00,
2013-05-12 01:46:00,72.5,66.3,29.84,SW,216,2.0,4.6,81,0.00,CLR,OVC,0.00,0.0,WeatherDisplay:10.37,2013-05-12 05:46:00,
2013-05-12 01:51:00,72.5,66.3,29.84,SW,235,1.8,5.8,81,0.00,CLR,OVC,0.00,0.0,WeatherDisplay:10.37,2013-05-12 05:51:00,
2013-05-12 01:56:00,72.5,66.3,29.83,WSW,252,5.2,10.4,81,0.00,CLR,OVC,0.00,0.0,WeatherDisplay:10.37,2013-05-12 05:56:00,
2013-05-12 02:01:00,72.4,66.2,29.83,South,181,3.5,8.1,81,0.00,CLR,OVC,0.00,0.0,WeatherDisplay:10.37,2013-05-12 06:01:00,
2013-05-12 02:06:00,72.3,66.5,29.83,SSW,192,3.2,5.8,82,0.00,CLR,OVC,0.00,0.0,WeatherDisplay:10.37,2013-05-12 06:06:00,
2013-05-12 02:11:00,72.3,66.5,29.83,SW,232,2.0,3.5,82,0.00,CLR,OVC,0.00,0.0,WeatherDisplay:10.37,2013-05-12 06:11:00,
2013-05-12 02:16:00,72.2,66.4,29.83,SW,228,2.3,5.8,82,0.00,CLR,OVC,0.00,0.0,WeatherDisplay:10.37,2013-05-12 06:16:00,
2013-05-12 02:21:00,72.1,66.3,29.83,SW,219,3.3,5.8,82,0.00,CLR,OVC,0.00,0.0,WeatherDisplay:10.37,2013-05-12 06:21:00,
2013-05-12 02:26:00,72.1,66.3,29.83,SW,225,3.3,6.9,82,0.00,CLR,OVC,0.00,0.0,WeatherDisplay:10.37,2013-05-12 06:26:00,
2013-05-12 02:31:00,72.1,66.3,29.83,WSW,242,4.1,9.2,82,0.00,CLR,OVC,0.00,0.0,WeatherDisplay:10.37,2013-05-12 06:31:00,
2013-05-12 02:36:00,72.1,66.3,29.82,West,268,2.4,4.0,82,0.00,CLR,OVC,0.00,0.0,WeatherDisplay:10.37,2013-05-12 06:36:00,
2013-05-12 02:41:00,72.1,66.3,29.82,South,190,1.5,3.5,82,0.00,CLR,OVC,0.00,0.0,WeatherDisplay:10.37,2013-05-12 06:41:00,
2013-05-12 02:46:00,72.0,65.8,29.82,South,182,3.7,8.1,81,0.00,CLR,OVC,0.00,0.0,WeatherDisplay:10.37,2013-05-12 06:46:00,
2013-05-12 02:51:00,72.1,65.9,29.82,South,188,1.5,3.5,81,0.00,CLR,OVC,0.00,0.0,WeatherDisplay:10.37,2013-05-12 06:51:00,
2013-05-12 02:56:00,72.1,65.9,29.81,South,180,1.9,4.6,81,0.00,CLR,OVC,0.00,0.0,WeatherDisplay:10.37,2013-05-12 06:56:00,
2013-05-12 03:01:00,72.1,65.9,29.81,South,177,2.5,4.6,81,0.00,CLR,OVC,0.00,0.0,WeatherDisplay:10.37,2013-05-12 07:01:00,
2013-05-12 03:06:00,72.1,65.9,29.81,SW,214,1.3,3.5,81,0.00,CLR,OVC,0.00,0.0,WeatherDisplay:10.37,2013-05-12 07:06:00,
2013-05-12 03:11:00,72.1,65.9,29.81,SW,223,1.9,3.5,81,0.00,CLR,OVC,0.00,0.0,WeatherDisplay:10.37,2013-05-12 07:11:00,
2013-05-12 03:16:00,72.1,66.3,29.81,SW,225,1.4,4.6,82,0.00,CLR,OVC,0.00,0.0,WeatherDisplay:10.37,2013-05-12 07:16:00,
2013-05-12 03:21:00,72.0,66.2,29.81,SSW,201,1.7,5.8,82,0.00,CLR,OVC,0.00,0.0,WeatherDisplay:10.37,2013-05-12 07:21:00,
2013-05-12 03:26:00,71.9,66.1,29.82,SSW,198,2.2,5.0,82,0.00,CLR,OVC,0.00,0.0,WeatherDisplay:10.37,2013-05-12 07:26:00,
2013-05-12 03:31:00,71.9,66.5,29.82,SSW,211,4.1,8.1,83,0.00,CLR,OVC,0.00,0.0,WeatherDisplay:10.37,2013-05-12 07:31:00,
2013-05-12 03:36:00,71.8,66.4,29.82,West,260,2.4,3.5,83,0.00,CLR,OVC,0.00,0.0,WeatherDisplay:10.37,2013-05-12 07:36:00,
2013-05-12 03:41:00,71.7,66.3,29.81,South,184,3.7,6.9,83,0.00,CLR,OVC,0.00,0.0,WeatherDisplay:10.37,2013-05-12 07:41:00,
2013-05-12 03:46:00,71.7,66.3,29.81,South,175,1.9,3.5,83,0.00,CLR,OVC,0.00,0.0,WeatherDisplay:10.37,2013-05-12 07:46:00,
2013-05-12 03:51:00,71.7,66.3,29.81,SSW,208,1.5,3.5,83,0.00,CLR,OVC,0.00,0.0,WeatherDisplay:10.37,2013-05-12 07:51:00,
2013-05-12 03:56:00,71.6,66.5,29.81,West,259,1.7,5.8,84,0.00,CLR,OVC,0.00,0.0,WeatherDisplay:10.37,2013-05-12 07:56:00,
2013-05-12 04:01:00,71.5,66.4,29.81,SW,229,1.1,5.0,84,0.00,CLR,OVC,0.00,0.0,WeatherDisplay:10.37,2013-05-12 08:01:00,
2013-05-12 04:06:00,71.6,66.2,29.81,SSW,200,3.1,8.1,83,0.00,CLR,OVC,0.00,0.0,WeatherDisplay:10.37,2013-05-12 08:06:00,
2013-05-12 04:11:00,71.7,66.3,29.81,South,184,2.0,4.6,83,0.00,CLR,OVC,0.00,0.0,WeatherDisplay:10.37,2013-05-12 08:11:00,
2013-05-12 04:16:00,71.8,66.4,29.81,SW,225,2.8,6.9,83,0.00,CLR,OVC,0.00,0.0,WeatherDisplay:10.37,2013-05-12 08:16:00,
2013-05-12 04:21:00,71.7,66.3,29.80,WSW,246,5.5,7.0,83,0.00,CLR,OVC,0.00,0.0,WeatherDisplay:10.37,2013-05-12 08:21:00,
2013-05-12 04:26:00,71.7,65.9,29.80,SW,229,3.7,3.7,82,0.00,CLR,OVC,0.00,0.0,WeatherDisplay:10.37,2013-05-12 08:26:00,
2013-05-12 04:32:00,71.7,65.9,29.80,SW,222,1.7,5.8,82,0.00,CLR,OVC,0.00,0.0,WeatherDisplay:10.37,2013-05-12 08:32:00,
2013-05-12 04:36:00,71.7,65.9,29.80,SW,221,2.1,5.0,82,0.00,CLR,OVC,0.00,0.0,WeatherDisplay:10.37,2013-05-12 08:36:00,
2013-05-12 04:42:00,71.7,65.9,29.80,WSW,247,2.1,6.9,82,0.00,CLR,OVC,0.00,0.0,WeatherDisplay:10.37,2013-05-12 08:42:00,
2013-05-12 04:47:00,71.7,65.9,29.80,SSW,196,2.7,6.9,82,0.00,CLR,OVC,0.00,0.0,WeatherDisplay:10.37,2013-05-12 08:47:00,
2013-05-12 04:52:00,71.7,65.9,29.80,West,275,3.4,3.5,82,0.00,CLR,OVC,0.00,0.0,WeatherDisplay:10.37,2013-05-12 08:52:00,
2013-05-12 04:57:00,71.7,66.3,29.80,WNW,290,3.2,7.0,83,0.00,CLR,OVC,0.00,0.0,WeatherDisplay:10.37,2013-05-12 08:57:00,
2013-05-12 05:02:00,71.5,66.4,29.80,SSW,206,2.0,6.0,84,0.00,CLR,OVC,0.00,0.0,WeatherDisplay:10.37,2013-05-12 09:02:00,
2013-05-12 05:07:00,71.1,66.0,29.79,WNW,298,2.9,9.0,84,0.00,CLR,OVC,0.00,0.0,WeatherDisplay:10.37,2013-05-12 09:07:00,
2013-05-12 05:12:00,70.8,66.1,29.79,ENE,74,1.8,3.5,85,0.00,CLR,OVC,0.00,0.0,WeatherDisplay:10.37,2013-05-12 09:12:00,
2013-05-12 05:17:00,70.6,65.9,29.78,WNW,288,4.1,8.1,85,0.00,CLR,OVC,0.00,0.0,WeatherDisplay:10.37,2013-05-12 09:17:00,
2013-05-12 05:22:00,70.5,66.1,29.78,NW,304,2.4,4.6,86,0.00,CLR,OVC,0.00,0.0,WeatherDisplay:10.37,2013-05-12 09:22:00,
2013-05-12 05:27:00,70.4,66.0,29.78,SW,230,1.8,4.6,86,0.00,CLR,OVC,0.00,0.0,WeatherDisplay:10.37,2013-05-12 09:27:00,
2013-05-12 05:32:00,70.2,65.8,29.78,SW,225,2.0,3.5,86,0.00,CLR,OVC,0.00,0.0,WeatherDisplay:10.37,2013-05-12 09:32:00,
2013-05-12 05:37:00,70.1,65.7,29.78,SSW,203,4.2,9.2,86,0.00,CLR,OVC,0.00,0.0,WeatherDisplay:10.37,2013-05-12 09:37:00,
2013-05-12 05:42:00,70.1,65.7,29.78,West,259,2.0,5.8,86,0.00,CLR,OVC,0.00,0.0,WeatherDisplay:10.37,2013-05-12 09:42:00,
2013-05-12 05:47:00,69.9,65.9,29.78,SSW,204,1.8,4.6,87,0.00,CLR,OVC,0.00,0.0,WeatherDisplay:10.37,2013-05-12 09:47:00,
2013-05-12 05:52:00,69.9,65.9,29.78,SSW,199,0.8,2.3,87,0.00,CLR,OVC,0.00,0.0,WeatherDisplay:10.37,2013-05-12 09:52:00,
2013-05-12 05:57:00,69.8,65.8,29.78,WSW,250,2.0,4.6,87,0.00,CLR,OVC,0.00,0.0,WeatherDisplay:10.37,2013-05-12 09:57:00,
2013-05-12 06:02:00,69.7,65.7,29.78,SW,230,2.7,6.9,87,0.00,OVC,,0.00,0.0,WeatherDisplay:10.37,2013-05-12 10:02:00,
2013-05-12 06:07:00,69.6,65.9,29.78,South,188,2.2,3.5,88,0.00,OVC,,0.00,0.0,WeatherDisplay:10.37,2013-05-12 10:07:00,
2013-05-12 06:12:00,69.5,65.8,29.78,WSW,253,1.2,2.3,88,0.00,OVC,,0.00,0.0,WeatherDisplay:10.37,2013-05-12 10:12:00,
2013-05-12 06:17:00,69.4,65.7,29.79,SW,217,1.7,3.5,88,0.00,OVC,,0.00,0.0,WeatherDisplay:10.37,2013-05-12 10:17:00,
2013-05-12 06:22:00,69.4,65.7,29.78,WSW,250,2.9,5.8,88,0.00,OVC,,0.00,0.0,WeatherDisplay:10.37,2013-05-12 10:22:00,
2013-05-12 06:27:00,69.4,65.7,29.78,SW,219,1.6,3.5,88,0.00,OVC,,0.00,0.0,WeatherDisplay:10.37,2013-05-12 10:27:00,
2013-05-12 06:32:00,69.4,65.7,29.78,SW,231,0.9,4.6,88,0.00,OVC,,0.00,0.0,WeatherDisplay:10.37,2013-05-12 10:32:00,
2013-05-12 06:37:00,69.4,65.7,29.78,SW,236,2.0,3.5,88,0.00,OVC,,0.00,0.0,WeatherDisplay:10.37,2013-05-12 10:37:00,
2013-05-12 06:42:00,69.4,65.7,29.79,West,279,1.9,5.8,88,0.00,OVC,,0.00,0.0,WeatherDisplay:10.37,2013-05-12 10:42:00,
2013-05-12 06:47:00,69.4,65.7,29.79,SSW,200,2.4,5.8,88,0.00,OVC,,0.00,0.0,WeatherDisplay:10.37,2013-05-12 10:47:00,
2013-05-12 06:52:00,69.4,65.7,29.80,SW,227,1.5,3.5,88,0.00,OVC,,0.00,0.0,WeatherDisplay:10.37,2013-05-12 10:52:00,
2013-05-12 06:57:00,69.5,65.8,29.80,WSW,242,0.3,3.5,88,0.00,OVC,,0.00,0.0,WeatherDisplay:10.37,2013-05-12 10:57:00,
2013-05-12 07:02:00,69.5,66.1,29.80,SW,222,0.3,3.5,89,0.00,OVC,,0.00,0.0,WeatherDisplay:10.37,2013-05-12 11:02:00,
2013-05-12 07:07:00,69.5,66.1,29.81,WSW,257,0.5,2.3,89,0.00,OVC,,0.00,0.0,WeatherDisplay:10.37,2013-05-12 11:07:00,
2013-05-12 07:12:00,69.6,66.2,29.81,SW,220,2.1,4.6,89,0.00,OVC,,0.00,0.0,WeatherDisplay:10.37,2013-05-12 11:12:00,
2013-05-12 07:17:00,69.6,66.2,29.81,WSW,257,1.2,6.0,89,0.00,OVC,,0.00,0.0,WeatherDisplay:10.37,2013-05-12 11:17:00,
2013-05-12 07:22:00,69.7,66.3,29.81,West,261,2.4,5.8,89,0.00,OVC,,0.00,0.0,WeatherDisplay:10.37,2013-05-12 11:22:00,
2013-05-12 07:27:00,70.0,66.3,29.81,WSW,238,1.1,3.5,88,0.00,OVC,,0.00,0.0,WeatherDisplay:10.37,2013-05-12 11:27:00,
2013-05-12 07:32:00,70.4,66.7,29.82,WNW,290,0.1,1.1,88,0.00,OVC,,0.00,0.0,WeatherDisplay:10.37,2013-05-12 11:32:00,
2013-05-12 07:37:00,70.9,66.8,29.82,WNW,296,2.2,7.0,87,0.00,OVC,,0.00,0.0,WeatherDisplay:10.37,2013-05-12 11:37:00,
2013-05-12 07:42:00,71.5,67.1,29.82,NW,306,3.4,9.2,86,0.00,OVC,,0.00,0.0,WeatherDisplay:10.37,2013-05-12 11:42:00,
2013-05-12 07:47:00,72.1,67.3,29.82,South,179,1.1,2.3,85,0.00,OVC,,0.00,0.0,WeatherDisplay:10.37,2013-05-12 11:47:00,
2013-05-12 07:52:00,72.4,66.9,29.82,West,280,1.8,3.5,83,0.00,OVC,,0.00,0.0,WeatherDisplay:10.37,2013-05-12 11:52:00,
2013-05-12 07:57:00,72.4,66.9,29.82,WSW,252,1.1,4.0,83,0.00,OVC,,0.00,0.0,WeatherDisplay:10.37,2013-05-12 11:57:00,
2013-05-12 08:02:00,72.3,67.2,29.82,South,191,0.4,2.3,84,0.00,OVC,,0.00,0.0,WeatherDisplay:10.37,2013-05-12 12:02:00,
2013-05-12 08:07:00,72.4,66.9,29.82,West,262,2.4,5.8,83,0.00,OVC,,0.00,0.0,WeatherDisplay:10.37,2013-05-12 12:07:00,
2013-05-12 08:12:00,72.4,66.6,29.82,WNW,299,2.4,4.6,82,0.00,OVC,,0.00,0.0,WeatherDisplay:10.37,2013-05-12 12:12:00,
2013-05-12 08:17:00,72.2,66.7,29.83,North,5,1.4,4.6,83,0.00,OVC,,0.00,0.0,WeatherDisplay:10.37,2013-05-12 12:17:00,
2013-05-12 08:22:00,71.9,66.5,29.82,WSW,245,1.5,3.5,83,0.00,OVC,,0.00,0.0,WeatherDisplay:10.37,2013-05-12 12:22:00,
2013-05-12 08:27:00,71.7,66.3,29.81,West,276,2.1,3.0,83,0.00,OVC,,0.00,0.0,WeatherDisplay:10.37,2013-05-12 12:27:00,
2013-05-12 08:32:00,71.6,66.5,29.81,NW,313,0.5,2.3,84,0.00,OVC,,0.00,0.0,WeatherDisplay:10.37,2013-05-12 12:32:00,
2013-05-12 08:37:00,71.5,66.4,29.81,NW,306,2.6,6.9,84,0.00,OVC,,0.00,0.0,WeatherDisplay:10.37,2013-05-12 12:37:00,
2013-05-12 08:42:00,71.6,66.5,29.81,NNW,335,1.7,4.6,84,0.00,OVC,,0.00,0.0,WeatherDisplay:10.37,2013-05-12 12:42:00,
2013-05-12 08:47:00,72.4,67.3,29.81,WSW,245,1.7,4.0,84,0.00,OVC,,0.00,0.0,WeatherDisplay:10.37,2013-05-12 12:47:00,
2013-05-12 08:52:00,72.8,67.0,29.81,WSW,254,1.7,5.8,82,0.00,OVC,,0.00,0.0,WeatherDisplay:10.37,2013-05-12 12:52:00,
2013-05-12 08:57:00,72.9,66.7,29.81,West,277,0.7,4.6,81,0.00,OVC,,0.00,0.0,WeatherDisplay:10.37,2013-05-12 12:57:00,
2013-05-12 09:02:00,72.8,66.6,29.81,NE,53,1.3,5.8,81,0.00,OVC,,0.00,0.0,WeatherDisplay:10.37,2013-05-12 13:02:00,
2013-05-12 09:07:00,72.6,65.7,29.81,SW,236,3.0,4.6,79,0.00,OVC,,0.00,0.0,WeatherDisplay:10.37,2013-05-12 13:07:00,
2013-05-12 09:12:00,72.4,65.5,29.82,North,5,1.1,5.8,79,0.00,OVC,,0.00,0.0,WeatherDisplay:10.37,2013-05-12 13:12:00,
2013-05-12 09:17:00,72.7,65.8,29.82,WNW,290,3.9,11.5,79,0.00,OVC,,0.00,0.0,WeatherDisplay:10.37,2013-05-12 13:17:00,
2013-05-12 09:22:00,73.5,66.2,29.82,NW,309,2.1,3.5,78,0.00,OVC,,0.00,0.0,WeatherDisplay:10.37,2013-05-12 13:22:00,
2013-05-12 09:27:00,73.8,65.8,29.82,WNW,286,1.7,6.9,76,0.00,OVC,,0.00,0.0,WeatherDisplay:10.37,2013-05-12 13:27:00,
2013-05-12 09:32:00,74.0,66.3,29.82,NNW,346,4.8,7.0,77,0.00,OVC,,0.00,0.0,WeatherDisplay:10.37,2013-05-12 13:32:00,
2013-05-12 09:37:00,74.5,66.1,29.83,WSW,240,4.2,5.8,75,0.00,OVC,,0.00,0.0,WeatherDisplay:10.37,2013-05-12 13:37:00,
2013-05-12 09:42:00,75.2,66.3,29.83,SW,223,1.5,5.0,74,0.00,OVC,,0.00,0.0,WeatherDisplay:10.37,2013-05-12 13:42:00,
2013-05-12 09:47:00,76.2,66.5,29.83,NW,319,0.1,1.0,72,0.00,OVC,,0.00,0.0,WeatherDisplay:10.37,2013-05-12 13:47:00,
2013-05-12 09:52:00,76.5,66.0,29.82,SW,229,0.8,3.5,70,0.00,OVC,,0.00,0.0,WeatherDisplay:10.37,2013-05-12 13:52:00,
2013-05-12 09:57:00,76.6,66.1,29.82,WNW,288,2.2,6.0,70,0.00,OVC,,0.00,0.0,WeatherDisplay:10.37,2013-05-12 13:57:00,
2013-05-12 10:03:00,76.4,66.3,29.82,WNW,299,2.2,4.0,71,0.00,OVC,,0.00,0.0,WeatherDisplay:10.37,2013-05-12 14:03:00,
2013-05-12 10:08:00,76.2,65.7,29.82,NW,319,3.8,5.8,70,0.00,OVC,,0.00,0.0,WeatherDisplay:10.37,2013-05-12 14:08:00,
2013-05-12 10:13:00,75.9,65.4,29.83,NW,311,3.7,6.9,70,0.00,OVC,,0.00,0.0,WeatherDisplay:10.37,2013-05-12 14:13:00,
2013-05-12 10:18:00,75.5,65.4,29.83,West,275,1.3,4.0,71,0.00,OVC,,0.00,0.0,WeatherDisplay:10.37,2013-05-12 14:18:00,
2013-05-12 10:23:00,75.3,66.0,29.83,NNE,28,2.6,4.6,73,0.00,OVC,,0.00,0.0,WeatherDisplay:10.37,2013-05-12 14:23:00,
2013-05-12 10:28:00,75.6,65.9,29.83,NNW,328,2.7,3.5,72,0.00,OVC,,0.00,0.0,WeatherDisplay:10.37,2013-05-12 14:28:00,
2013-05-12 10:33:00,75.7,65.6,29.83,ENE,65,2.7,4.6,71,0.00,OVC,,0.00,0.0,WeatherDisplay:10.37,2013-05-12 14:33:00,
2013-05-12 10:38:00,75.4,65.3,29.83,West,278,2.2,3.5,71,0.00,OVC,,0.00,0.0,WeatherDisplay:10.37,2013-05-12 14:38:00,
2013-05-12 10:43:00,75.4,64.9,29.84,SSE,148,3.0,5.8,70,0.00,OVC,,0.00,0.0,WeatherDisplay:10.37,2013-05-12 14:43:00,
2013-05-12 10:48:00,75.4,64.9,29.84,NW,325,4.9,8.1,70,0.00,OVC,,0.00,0.0,WeatherDisplay:10.37,2013-05-12 14:48:00,
2013-05-12 10:53:00,75.9,65.0,29.83,East,86,1.7,3.5,69,0.00,OVC,,0.00,0.0,WeatherDisplay:10.37,2013-05-12 14:53:00,
2013-05-12 10:58:00,76.4,64.2,29.84,North,5,1.3,4.6,66,0.00,OVC,,0.00,0.0,WeatherDisplay:10.37,2013-05-12 14:58:00,
2013-05-12 11:03:00,77.0,65.2,29.84,NW,319,2.5,3.5,67,0.00,OVC,,0.00,0.0,WeatherDisplay:10.37,2013-05-12 15:03:00,
2013-05-12 11:08:00,77.5,64.8,29.84,NW,318,2.7,7.0,65,0.00,OVC,,0.00,0.0,WeatherDisplay:10.37,2013-05-12 15:08:00,
2013-05-12 11:13:00,76.6,64.4,29.84,ESE,115,1.5,4.6,66,0.00,OVC,,0.00,0.0,WeatherDisplay:10.37,2013-05-12 15:13:00,
2013-05-12 11:18:00,76.5,64.7,29.84,WNW,286,0.4,2.3,67,0.00,OVC,,0.00,0.0,WeatherDisplay:10.37,2013-05-12 15:18:00,
2013-05-12 11:23:00,77.3,64.6,29.84,NW,313,0.7,3.5,65,0.00,OVC,,0.00,0.0,WeatherDisplay:10.37,2013-05-12 15:23:00,
2013-05-12 11:28:00,78.2,64.6,29.84,WNW,285,3.1,6.9,63,0.00,OVC,,0.00,0.0,WeatherDisplay:10.37,2013-05-12 15:28:00,
2013-05-12 11:33:00,79.0,64.9,29.84,NE,44,1.7,3.5,62,0.00,OVC,,0.00,0.0,WeatherDisplay:10.37,2013-05-12 15:33:00,
2013-05-12 11:38:00,79.1,64.5,29.84,WNW,302,1.4,4.6,61,0.00,OVC,,0.00,0.0,WeatherDisplay:10.37,2013-05-12 15:38:00,
2013-05-12 11:43:00,79.1,65.9,29.84,ENE,62,1.3,2.3,64,0.00,OVC,,0.00,0.0,WeatherDisplay:10.37,2013-05-12 15:43:00,
2013-05-12 11:48:00,79.3,64.2,29.84,North,11,4.3,5.8,60,0.00,OVC,,0.00,0.0,WeatherDisplay:10.37,2013-05-12 15:48:00,
2013-05-12 11:53:00,79.4,64.3,29.84,NNW,344,2.5,4.6,60,0.00,OVC,,0.00,0.0,WeatherDisplay:10.37,2013-05-12 15:53:00,
2013-05-12 11:58:00,79.4,64.3,29.84,WSW,244,3.6,4.6,60,0.00,OVC,,0.00,0.0,WeatherDisplay:10.37,2013-05-12 15:58:00,
2013-05-12 12:03:00,79.3,65.1,29.84,WSW,238,3.9,6.9,62,0.00,OVC,,0.00,0.0,WeatherDisplay:10.37,2013-05-12 16:03:00,
2013-05-12 12:08:00,79.3,64.2,29.84,WNW,285,1.7,3.5,60,0.00,OVC,,0.00,0.0,WeatherDisplay:10.37,2013-05-12 16:08:00,
2013-05-12 12:13:00,78.7,62.7,29.84,NW,317,3.6,8.1,58,0.00,OVC,,0.00,0.0,WeatherDisplay:10.37,2013-05-12 16:13:00,
2013-05-12 12:18:00,78.8,65.1,29.84,WSW,256,2.1,5.0,63,0.00,OVC,,0.00,0.0,WeatherDisplay:10.37,2013-05-12 16:18:00,
2013-05-12 12:23:00,78.8,63.3,29.83,NW,321,1.5,6.9,59,0.00,OVC,,0.00,0.0,WeatherDisplay:10.37,2013-05-12 16:23:00,
2013-05-12 12:28:00,79.1,64.0,29.84,SW,233,3.7,8.1,60,0.00,OVC,,0.00,0.0,WeatherDisplay:10.37,2013-05-12 16:28:00,
2013-05-12 12:33:00,79.0,63.4,29.84,SW,217,1.9,4.6,59,0.00,OVC,,0.00,0.0,WeatherDisplay:10.37,2013-05-12 16:33:00,
2013-05-12 12:38:00,79.5,62.9,29.84,SE,145,3.7,9.2,57,0.00,OVC,,0.00,0.0,WeatherDisplay:10.37,2013-05-12 16:38:00,
2013-05-12 12:43:00,80.0,63.9,29.84,NW,304,2.5,5.8,58,0.00,OVC,,0.00,0.0,WeatherDisplay:10.37,2013-05-12 16:43:00,
2013-05-12 12:48:00,80.4,63.3,29.83,WSW,242,3.6,4.0,56,0.00,OVC,,0.00,0.0,WeatherDisplay:10.37,2013-05-12 16:48:00,
2013-05-12 12:53:00,80.6,64.0,29.83,SSE,165,1.1,4.6,57,0.00,OVC,,0.00,0.0,WeatherDisplay:10.37,2013-05-12 16:53:00,
2013-05-12 12:58:00,80.9,62.7,29.83,SW,235,3.2,8.0,54,0.00,OVC,,0.00,0.0,WeatherDisplay:10.37,2013-05-12 16:58:00,
2013-05-12 13:03:00,80.4,62.8,29.83,SW,232,2.3,6.0,55,0.00,OVC,,0.00,0.0,WeatherDisplay:10.37,2013-05-12 17:03:00,
2013-05-12 13:08:00,80.4,62.8,29.83,SW,219,5.4,10.4,55,0.00,OVC,,0.00,0.0,WeatherDisplay:10.37,2013-05-12 17:08:00,
2013-05-12 13:13:00,80.1,63.0,29.83,SW,215,4.0,9.2,56,0.00,OVC,,0.00,0.0,WeatherDisplay:10.37,2013-05-12 17:13:00,
2013-05-12 13:18:00,79.8,63.2,29.83,NNW,347,1.4,6.0,57,0.00,OVC,,0.00,0.0,WeatherDisplay:10.37,2013-05-12 17:18:00,
2013-05-12 13:23:00,79.7,63.6,29.83,NE,42,2.0,5.8,58,0.00,OVC,,0.00,0.0,WeatherDisplay:10.37,2013-05-12 17:23:00,
2013-05-12 13:28:00,79.7,62.1,29.83,WSW,252,4.2,10.4,55,0.00,OVC,,0.00,0.0,WeatherDisplay:10.37,2013-05-12 17:28:00,
2013-05-12 13:33:00,79.4,61.8,29.84,WNW,301,4.7,6.9,55,0.00,OVC,,0.00,0.0,WeatherDisplay:10.37,2013-05-12 17:33:00,
2013-05-12 13:38:00,79.5,62.9,29.84,South,169,1.4,3.5,57,0.00,OVC,,0.00,0.0,WeatherDisplay:10.37,2013-05-12 17:38:00,
2013-05-12 13:43:00,80.0,62.4,29.84,WNW,283,2.4,3.5,55,0.00,OVC,,0.00,0.0,WeatherDisplay:10.37,2013-05-12 17:43:00,
2013-05-12 13:48:00,80.5,61.8,29.84,SSW,192,5.7,10.4,53,0.00,OVC,,0.00,0.0,WeatherDisplay:10.37,2013-05-12 17:48:00,
2013-05-12 13:53:00,80.3,61.6,29.84,NNW,330,2.0,3.5,53,0.00,OVC,,0.00,0.0,WeatherDisplay:10.37,2013-05-12 17:53:00,
2013-05-12 13:58:00,80.3,61.6,29.84,WNW,288,4.5,9.0,53,0.00,OVC,,0.00,0.0,WeatherDisplay:10.37,2013-05-12 17:58:00,
2013-05-12 14:03:00,80.6,61.9,29.85,SSW,204,2.5,6.9,53,0.00,OVC,,0.00,0.0,WeatherDisplay:10.37,2013-05-12 18:03:00,
2013-05-12 14:08:00,81.1,62.3,29.85,NW,316,1.4,5.8,53,0.00,OVC,,0.00,0.0,WeatherDisplay:10.37,2013-05-12 18:08:00,
2013-05-12 14:13:00,81.6,61.7,29.85,WSW,242,3.5,5.8,51,0.00,OVC,,0.00,0.0,WeatherDisplay:10.37,2013-05-12 18:13:00,
2013-05-12 14:18:00,81.9,60.9,29.85,WNW,294,5.4,8.1,49,0.00,OVC,,0.00,0.0,WeatherDisplay:10.37,2013-05-12 18:18:00,
2013-05-12 14:23:00,82.1,61.6,29.85,West,263,4.8,5.8,50,0.00,OVC,,0.00,0.0,WeatherDisplay:10.37,2013-05-12 18:23:00,
2013-05-12 14:28:00,82.1,60.5,29.85,SSE,167,4.8,11.5,48,0.00,OVC,,0.00,0.0,WeatherDisplay:10.37,2013-05-12 18:28:00,
2013-05-12 14:33:00,82.0,61.0,29.85,SW,223,3.2,4.6,49,0.00,OVC,,0.00,0.0,WeatherDisplay:10.37,2013-05-12 18:33:00,
2013-05-12 14:38:00,81.9,60.9,29.85,NNW,329,3.6,9.2,49,0.00,OVC,,0.00,0.0,WeatherDisplay:10.37,2013-05-12 18:38:00,
2013-05-12 14:43:00,81.7,58.9,29.85,NW,311,4.6,11.0,46,0.00,OVC,,0.00,0.0,WeatherDisplay:10.37,2013-05-12 18:43:00,
2013-05-12 14:48:00,81.1,58.4,29.85,WSW,255,3.1,6.0,46,0.00,OVC,,0.00,0.0,WeatherDisplay:10.37,2013-05-12 18:48:00,
2013-05-12 14:53:00,80.7,57.4,29.84,SSE,157,5.5,10.4,45,0.00,OVC,,0.00,0.0,WeatherDisplay:10.37,2013-05-12 18:53:00,
2013-05-12 14:58:00,80.7,57.4,29.85,West,266,5.5,6.9,45,0.00,OVC,,0.00,0.0,WeatherDisplay:10.37,2013-05-12 18:58:00,
2013-05-12 15:03:00,81.2,57.8,29.84,WSW,250,3.6,10.4,45,0.00,OVC,,0.00,0.0,WeatherDisplay:10.37,2013-05-12 19:03:00,
2013-05-12 15:08:00,81.6,56.3,29.84,WNW,290,2.4,11.5,42,0.00,OVC,,0.00,0.0,WeatherDisplay:10.37,2013-05-12 19:08:00,
2013-05-12 15:13:00,82.0,56.0,29.84,WSW,245,5.3,11.0,41,0.00,OVC,,0.00,0.0,WeatherDisplay:10.37,2013-05-12 19:13:00,
2013-05-12 15:18:00,81.4,56.8,29.84,WNW,298,1.6,6.0,43,0.00,OVC,,0.00,0.0,WeatherDisplay:10.37,2013-05-12 19:18:00,
2013-05-12 15:23:00,81.5,55.5,29.84,West,275,3.1,10.4,41,0.00,OVC,,0.00,0.0,WeatherDisplay:10.37,2013-05-12 19:23:00,
2013-05-12 15:28:00,81.8,55.1,29.84,West,272,3.7,6.9,40,0.00,OVC,,0.00,0.0,WeatherDisplay:10.37,2013-05-12 19:28:00,
2013-05-12 15:34:00,82.0,55.3,29.84,SW,229,4.1,9.2,40,0.00,OVC,,0.00,0.0,WeatherDisplay:10.37,2013-05-12 19:34:00,
2013-05-12 15:39:00,82.1,54.7,29.84,WSW,247,3.2,5.8,39,0.00,OVC,,0.00,0.0,WeatherDisplay:10.37,2013-05-12 19:39:00,
2013-05-12 15:44:00,82.3,53.4,29.84,West,281,7.1,7.1,37,0.00,OVC,,0.00,0.0,WeatherDisplay:10.37,2013-05-12 19:44:00,
2013-05-12 15:49:00,82.1,54.0,29.84,West,279,5.4,8.1,38,0.00,OVC,,0.00,0.0,WeatherDisplay:10.37,2013-05-12 19:49:00,
2013-05-12 15:54:00,82.0,54.6,29.84,West,267,3.3,6.9,39,0.00,OVC,,0.00,0.0,WeatherDisplay:10.37,2013-05-12 19:54:00,
2013-05-12 15:59:00,82.1,54.7,29.84,West,271,3.8,9.2,39,0.00,OVC,,0.00,0.0,WeatherDisplay:10.37,2013-05-12 19:59:00,
2013-05-12 16:04:00,82.3,52.7,29.84,WNW,301,3.6,11.5,36,0.00,OVC,,0.00,0.0,WeatherDisplay:10.37,2013-05-12 20:04:00,
2013-05-12 16:09:00,82.1,53.2,29.83,NNE,31,3.0,6.9,37,0.00,OVC,,0.00,0.0,WeatherDisplay:10.37,2013-05-12 20:09:00,
2013-05-12 16:14:00,82.2,52.6,29.84,North,350,4.8,10.4,36,0.00,OVC,,0.00,0.0,WeatherDisplay:10.37,2013-05-12 20:14:00,
2013-05-12 16:19:00,82.2,53.3,29.84,SSW,201,5.7,10.4,37,0.00,OVC,,0.00,0.0,WeatherDisplay:10.37,2013-05-12 20:19:00,
2013-05-12 16:24:00,81.9,53.8,29.83,SSW,213,3.0,3.5,38,0.00,OVC,,0.00,0.0,WeatherDisplay:10.37,2013-05-12 20:24:00,
2013-05-12 16:29:00,82.1,54.7,29.83,North,9,2.5,3.5,39,0.00,OVC,,0.00,0.0,WeatherDisplay:10.37,2013-05-12 20:29:00,
2013-05-12 16:34:00,82.3,54.2,29.83,West,273,2.9,6.9,38,0.00,OVC,,0.00,0.0,WeatherDisplay:10.37,2013-05-12 20:34:00,
2013-05-12 16:39:00,82.1,53.2,29.84,WSW,249,2.8,4.6,37,0.00,OVC,,0.00,0.0,WeatherDisplay:10.37,2013-05-12 20:39:00,
2013-05-12 16:44:00,82.0,53.9,29.84,WSW,255,3.7,6.9,38,0.00,OVC,,0.00,0.0,WeatherDisplay:10.37,2013-05-12 20:44:00,
2013-05-12 16:49:00,81.9,53.1,29.84,SW,217,5.1,6.9,37,0.00,OVC,,0.00,0.0,WeatherDisplay:10.37,2013-05-12 20:49:00,
2013-05-12 16:54:00,81.7,52.9,29.84,SW,217,4.7,10.4,37,0.00,OVC,,0.00,0.0,WeatherDisplay:10.37,2013-05-12 20:54:00,
2013-05-12 16:59:00,81.7,52.9,29.84,SSE,159,1.3,3.5,37,0.00,OVC,,0.00,0.0,WeatherDisplay:10.37,2013-05-12 20:59:00,
2013-05-12 17:04:00,82.0,53.2,29.84,WSW,252,2.3,4.6,37,0.00,OVC,,0.00,0.0,WeatherDisplay:10.37,2013-05-12 21:04:00,
2013-05-12 17:09:00,81.7,52.1,29.85,SSW,208,4.3,6.9,36,0.00,OVC,,0.00,0.0,WeatherDisplay:10.37,2013-05-12 21:09:00,
2013-05-12 17:14:00,81.0,52.3,29.85,WSW,241,2.3,3.5,37,0.00,OVC,,0.00,0.0,WeatherDisplay:10.37,2013-05-12 21:14:00,
2013-05-12 17:19:00,81.0,52.3,29.85,WSW,248,3.0,6.9,37,0.00,OVC,,0.00,0.0,WeatherDisplay:10.37,2013-05-12 21:19:00,
2013-05-12 17:24:00,81.1,51.6,29.85,WNW,294,4.8,11.5,36,0.00,OVC,,0.00,0.0,WeatherDisplay:10.37,2013-05-12 21:24:00,
2013-05-12 17:29:00,81.2,51.7,29.85,West,268,3.5,5.8,36,0.00,OVC,,0.00,0.0,WeatherDisplay:10.37,2013-05-12 21:29:00,
2013-05-12 17:34:00,81.4,51.9,29.85,WSW,247,4.3,10.4,36,0.00,OVC,,0.00,0.0,WeatherDisplay:10.37,2013-05-12 21:34:00,
2013-05-12 17:39:00,81.3,53.3,29.85,West,277,1.3,3.5,38,0.00,OVC,,0.00,0.0,WeatherDisplay:10.37,2013-05-12 21:39:00,
2013-05-12 17:44:00,81.2,52.4,29.86,WNW,296,3.4,7.0,37,0.00,OVC,,0.00,0.0,WeatherDisplay:10.37,2013-05-12 21:44:00,
2013-05-12 17:49:00,81.0,52.3,29.85,NNW,331,0.0,1.1,37,0.00,OVC,,0.00,0.0,WeatherDisplay:10.37,2013-05-12 21:49:00,
2013-05-12 17:54:00,81.1,50.9,29.85,North,355,3.3,6.9,35,0.00,OVC,,0.00,0.0,WeatherDisplay:10.37,2013-05-12 21:54:00,
2013-05-12 17:59:00,80.9,52.2,29.86,NW,309,1.0,5.8,37,0.00,OVC,,0.00,0.0,WeatherDisplay:10.37,2013-05-12 21:59:00,
2013-05-12 18:04:00,80.7,52.0,29.86,WNW,286,1.8,6.0,37,0.00,OVC,,0.00,0.0,WeatherDisplay:10.37,2013-05-12 22:04:00,
2013-05-12 18:09:00,79.9,52.0,29.86,WSW,242,2.0,5.0,38,0.00,OVC,,0.00,0.0,WeatherDisplay:10.37,2013-05-12 22:09:00,
2013-05-12 18:14:00,79.4,51.6,29.86,West,280,3.7,9.2,38,0.00,OVC,,0.00,0.0,WeatherDisplay:10.37,2013-05-12 22:14:00,
2013-05-12 18:19:00,79.5,51.7,29.86,NNW,338,0.6,2.3,38,0.00,OVC,,0.00,0.0,WeatherDisplay:10.37,2013-05-12 22:19:00,
2013-05-12 18:24:00,79.7,50.4,29.86,WNW,286,5.6,9.2,36,0.00,OVC,,0.00,0.0,WeatherDisplay:10.37,2013-05-12 22:24:00,
2013-05-12 18:29:00,79.5,50.9,29.87,WNW,292,2.8,5.0,37,0.00,OVC,,0.00,0.0,WeatherDisplay:10.37,2013-05-12 22:29:00,
2013-05-12 18:34:00,79.0,50.5,29.86,South,189,2.3,4.0,37,0.00,OVC,,0.00,0.0,WeatherDisplay:10.37,2013-05-12 22:34:00,
2013-05-12 18:39:00,78.5,50.8,29.86,SW,229,1.3,2.3,38,0.00,OVC,,0.00,0.0,WeatherDisplay:10.37,2013-05-12 22:39:00,
2013-05-12 18:44:00,78.1,50.4,29.86,SW,230,0.8,4.0,38,0.00,OVC,,0.00,0.0,WeatherDisplay:10.37,2013-05-12 22:44:00,
2013-05-12 18:49:00,77.7,50.8,29.87,WSW,257,3.9,6.9,39,0.00,OVC,,0.00,0.0,WeatherDisplay:10.37,2013-05-12 22:49:00,
2013-05-12 18:54:00,77.4,51.2,29.87,WNW,296,1.5,3.5,40,0.00,OVC,,0.00,0.0,WeatherDisplay:10.37,2013-05-12 22:54:00,
2013-05-12 18:59:00,77.2,51.0,29.88,NW,314,2.8,5.8,40,0.00,OVC,,0.00,0.0,WeatherDisplay:10.37,2013-05-12 22:59:00,
2013-05-12 19:04:00,76.9,50.7,29.88,SW,235,1.1,5.0,40,0.00,OVC,,0.00,0.0,WeatherDisplay:10.37,2013-05-12 23:04:00,
2013-05-12 19:09:00,76.7,50.6,29.88,NW,305,0.6,2.3,40,0.00,OVC,,0.00,0.0,WeatherDisplay:10.37,2013-05-12 23:09:00,
2013-05-12 19:14:00,76.4,51.6,29.88,WSW,253,0.2,1.1,42,0.00,OVC,,0.00,0.0,WeatherDisplay:10.37,2013-05-12 23:14:00,
2013-05-12 19:19:00,76.1,52.0,29.88,WSW,249,0.0,0.0,43,0.00,OVC,,0.00,0.0,WeatherDisplay:10.37,2013-05-12 23:19:00,
2013-05-12 19:24:00,75.8,52.3,29.88,WSW,249,0.0,0.0,44,0.00,OVC,,0.00,0.0,WeatherDisplay:10.37,2013-05-12 23:24:00,
2013-05-12 19:29:00,75.6,52.8,29.89,WSW,249,0.0,0.0,45,0.00,OVC,,0.00,0.0,WeatherDisplay:10.37,2013-05-12 23:29:00,
2013-05-12 19:34:00,75.2,53.6,29.89,WSW,249,0.0,0.0,47,0.00,OVC,,0.00,0.0,WeatherDisplay:10.37,2013-05-12 23:34:00,
2013-05-12 19:39:00,74.8,53.8,29.89,WSW,249,0.0,0.0,48,0.00,OVC,,0.00,0.0,WeatherDisplay:10.37,2013-05-12 23:39:00,
2013-05-12 19:44:00,74.4,54.0,29.89,WSW,249,0.0,0.0,49,0.00,OVC,,0.00,0.0,WeatherDisplay:10.37,2013-05-12 23:44:00,
2013-05-12 19:49:00,74.0,54.2,29.90,WSW,249,0.0,0.0,50,0.00,OVC,,0.00,0.0,WeatherDisplay:10.37,2013-05-12 23:49:00,
2013-05-12 19:54:00,73.5,53.7,29.90,WSW,249,0.0,0.0,50,0.00,OVC,,0.00,0.0,WeatherDisplay:10.37,2013-05-12 23:54:00,
2013-05-12 19:59:00,73.0,54.3,29.90,WSW,249,0.0,0.0,52,0.00,OVC,,0.00,0.0,WeatherDisplay:10.37,2013-05-12 23:59:00,
2013-05-12 20:04:00,72.5,54.9,29.90,WSW,249,0.0,0.0,54,0.00,OVC,,0.00,0.0,WeatherDisplay:10.37,2013-05-13 00:04:00,
2013-05-12 20:09:00,72.1,55.0,29.90,WSW,249,0.0,0.0,55,0.00,OVC,,0.00,0.0,WeatherDisplay:10.37,2013-05-13 00:09:00,
2013-05-12 20:14:00,71.7,54.2,29.91,WSW,249,0.0,0.0,54,0.00,OVC,,0.00,0.0,WeatherDisplay:10.37,2013-05-13 00:14:00,
2013-05-12 20:19:00,71.3,54.8,29.90,WSW,249,0.0,0.0,56,0.00,OVC,,0.00,0.0,WeatherDisplay:10.37,2013-05-13 00:19:00,
2013-05-12 20:24:00,70.9,54.9,29.91,WSW,249,0.0,0.0,57,0.00,OVC,,0.00,0.0,WeatherDisplay:10.37,2013-05-13 00:24:00,
2013-05-12 20:29:00,70.5,55.0,29.91,WSW,249,0.0,0.0,58,0.00,OVC,,0.00,0.0,WeatherDisplay:10.37,2013-05-13 00:29:00,
2013-05-12 20:34:00,70.2,55.2,29.91,WSW,249,0.0,0.0,59,0.00,OVC,,0.00,0.0,WeatherDisplay:10.37,2013-05-13 00:34:00,
2013-05-12 20:39:00,69.9,54.4,29.91,WSW,249,0.0,0.0,58,0.00,CLR,OVC,0.00,0.0,WeatherDisplay:10.37,2013-05-13 00:39:00,
2013-05-12 20:44:00,69.6,55.1,29.91,WSW,249,0.0,0.0,60,0.00,CLR,OVC,0.00,0.0,WeatherDisplay:10.37,2013-05-13 00:44:00,
2013-05-12 20:49:00,69.4,54.4,29.91,WSW,249,0.0,0.0,59,0.00,CLR,OVC,0.00,0.0,WeatherDisplay:10.37,2013-05-13 00:49:00,
2013-05-12 20:55:00,69.2,54.7,29.92,WSW,249,0.0,0.0,60,0.00,CLR,OVC,0.00,0.0,WeatherDisplay:10.37,2013-05-13 00:55:00,
2013-05-12 21:00:00,68.9,54.4,29.92,WSW,249,0.0,0.0,60,0.00,CLR,OVC,0.00,0.0,WeatherDisplay:10.37,2013-05-13 01:00:00,
2013-05-12 21:05:00,68.6,54.6,29.92,WSW,249,0.0,0.0,61,0.00,CLR,OVC,0.00,0.0,WeatherDisplay:10.37,2013-05-13 01:05:00,
2013-05-12 21:10:00,68.3,55.6,29.93,WSW,249,0.0,0.0,64,0.00,CLR,OVC,0.00,0.0,WeatherDisplay:10.37,2013-05-13 01:10:00,
2013-05-12 21:15:00,67.9,56.1,29.93,WSW,249,0.0,0.0,66,0.00,CLR,OVC,0.00,0.0,WeatherDisplay:10.37,2013-05-13 01:15:00,
2013-05-12 21:20:00,67.6,55.8,29.93,WSW,249,0.0,0.0,66,0.00,CLR,OVC,0.00,0.0,WeatherDisplay:10.37,2013-05-13 01:20:00,
2013-05-12 21:25:00,67.2,55.5,29.93,WSW,249,0.0,0.0,66,0.00,CLR,OVC,0.00,0.0,WeatherDisplay:10.37,2013-05-13 01:25:00,
2013-05-12 21:30:00,67.0,55.7,29.93,WSW,249,0.0,0.0,67,0.00,CLR,OVC,0.00,0.0,WeatherDisplay:10.37,2013-05-13 01:30:00,
2013-05-12 21:35:00,66.8,55.9,29.94,WSW,249,0.0,0.0,68,0.00,CLR,OVC,0.00,0.0,WeatherDisplay:10.37,2013-05-13 01:35:00,
2013-05-12 21:40:00,66.7,55.4,29.94,WSW,249,0.0,0.0,67,0.00,CLR,OVC,0.00,0.0,WeatherDisplay:10.37,2013-05-13 01:40:00,
2013-05-12 21:45:00,66.5,55.6,29.94,WSW,249,0.0,0.0,68,0.00,CLR,OVC,0.00,0.0,WeatherDisplay:10.37,2013-05-13 01:45:00,
2013-05-12 21:50:00,66.4,55.5,29.94,WSW,249,0.0,0.0,68,0.00,CLR,OVC,0.00,0.0,WeatherDisplay:10.37,2013-05-13 01:50:00,
2013-05-12 21:55:00,66.3,55.8,29.95,WSW,249,0.0,0.0,69,0.00,CLR,OVC,0.00,0.0,WeatherDisplay:10.37,2013-05-13 01:55:00,
2013-05-12 22:00:00,66.2,55.7,29.95,WSW,249,0.0,0.0,69,0.00,CLR,OVC,0.00,0.0,WeatherDisplay:10.37,2013-05-13 02:00:00,
2013-05-12 22:05:00,66.1,56.0,29.96,WSW,249,0.0,0.0,70,0.00,CLR,OVC,0.00,0.0,WeatherDisplay:10.37,2013-05-13 02:05:00,
2013-05-12 22:10:00,66.2,54.9,29.96,NW,308,0.0,0.0,67,0.00,CLR,OVC,0.00,0.0,WeatherDisplay:10.37,2013-05-13 02:10:00,
2013-05-12 22:15:00,66.4,54.7,29.97,NNE,30,0.6,2.3,66,0.00,CLR,OVC,0.00,0.0,WeatherDisplay:10.37,2013-05-13 02:15:00,
2013-05-12 22:20:00,66.6,53.6,29.97,NW,326,0.5,2.3,63,0.00,CLR,OVC,0.00,0.0,WeatherDisplay:10.37,2013-05-13 02:20:00,
2013-05-12 22:25:00,66.9,53.5,29.97,North,355,0.4,3.5,62,0.00,CLR,OVC,0.00,0.0,WeatherDisplay:10.37,2013-05-13 02:25:00,
2013-05-12 22:30:00,67.0,53.5,29.97,NW,320,0.5,3.5,62,0.00,CLR,OVC,0.00,0.0,WeatherDisplay:10.37,2013-05-13 02:30:00,
2013-05-12 22:35:00,67.1,53.2,29.97,NE,46,0.0,0.0,61,0.00,CLR,OVC,0.00,0.0,WeatherDisplay:10.37,2013-05-13 02:35:00,
2013-05-12 22:40:00,67.0,53.5,29.97,NE,45,0.0,0.0,62,0.00,CLR,OVC,0.00,0.0,WeatherDisplay:10.37,2013-05-13 02:40:00,
2013-05-12 22:45:00,66.9,53.5,29.97,North,351,0.0,0.0,62,0.00,CLR,OVC,0.00,0.0,WeatherDisplay:10.37,2013-05-13 02:45:00,
2013-05-12 22:50:00,66.7,53.3,29.97,North,351,0.0,0.0,62,0.00,CLR,OVC,0.00,0.0,WeatherDisplay:10.37,2013-05-13 02:50:00,
2013-05-12 22:55:00,66.6,52.7,29.97,ENE,75,0.0,0.0,61,0.00,CLR,OVC,0.00,0.0,WeatherDisplay:10.37,2013-05-13 02:55:00,
2013-05-12 23:00:00,66.5,53.1,29.97,NNW,339,0.0,0.0,62,0.00,CLR,OVC,0.00,0.0,WeatherDisplay:10.37,2013-05-13 03:00:00,
2013-05-12 23:05:00,66.4,53.0,29.97,NNW,339,0.4,2.3,62,0.00,CLR,OVC,0.00,0.0,WeatherDisplay:10.37,2013-05-13 03:05:00,
2013-05-12 23:10:00,66.1,53.1,29.97,NNW,339,0.0,0.0,63,0.00,CLR,OVC,0.00,0.0,WeatherDisplay:10.37,2013-05-13 03:10:00,
2013-05-12 23:15:00,65.7,52.8,29.97,NNW,339,0.0,0.0,63,0.00,CLR,OVC,0.00,0.0,WeatherDisplay:10.37,2013-05-13 03:15:00,
2013-05-12 23:20:00,65.4,52.9,29.97,NNW,339,0.0,0.0,64,0.00,CLR,OVC,0.00,0.0,WeatherDisplay:10.37,2013-05-13 03:20:00,
2013-05-12 23:25:00,65.0,52.1,29.97,NW,315,0.1,4.6,63,0.00,CLR,OVC,0.00,0.0,WeatherDisplay:10.37,2013-05-13 03:25:00,
2013-05-12 23:30:00,64.7,52.2,29.97,NW,323,0.2,2.3,64,0.00,CLR,OVC,0.00,0.0,WeatherDisplay:10.37,2013-05-13 03:30:00,
2013-05-12 23:35:00,64.4,52.4,29.98,NW,323,0.0,0.0,65,0.00,CLR,OVC,0.00,0.0,WeatherDisplay:10.37,2013-05-13 03:35:00,
2013-05-12 23:40:00,64.1,52.1,29.98,NNW,331,0.0,0.0,65,0.00,CLR,OVC,0.00,0.0,WeatherDisplay:10.37,2013-05-13 03:40:00,
2013-05-12 23:45:00,63.8,52.2,29.98,NNW,331,0.0,0.0,66,0.00,CLR,OVC,0.00,0.0,WeatherDisplay:10.37,2013-05-13 03:45:00,
2013-05-12 23:50:00,63.5,51.9,29.98,NNW,331,0.0,0.0,66,0.00,CLR,OVC,0.00,0.0,WeatherDisplay:10.37,2013-05-13 03:50:00,
2013-05-12 23:55:00,63.1,52.0,29.98,NNW,346,0.1,0.0,67,0.00,CLR,OVC,0.00,0.0,WeatherDisplay:10.37,2013-05-13 03:55:00,